NOAA 16 DEB

Satellite information

Favourite Embed

Satellite Type and Status

DEBRISIN ORBIT

Key statistics

Satellite NOAA 16 DEB at a glance.

Uptime

9055

Days in orbit

Revolutions

≈ 14.5

Per day

Orbit

SSO

Sun Synchronous Orbit

Inclination

99.0

Latest

Satellite identification and parameters

Extended collection of information and parameters for NOAA 16 DEB.

Object identification

Identified? True

Debris? True

Object name: NOAA 16 DEB

International designator: 2000-055GU

Object number (NORAD): 41292

Object ID (CCSDS): 41292

Country: UNITED STATES OF AMERICA (US)

Current information (Y/N): Y

RCS size: SMALL

Orbital parameters

Period: 99.166 minutes

Inclination: 98.9877 deg

SMA: 7096.895 km

Apoapsis: 744.354 km

Periapsis: 693.165 km

RAAN: 33.7026 deg

Eccentricy: 0.0036064

Argument of periapsis: 354.966 deg

Mean anomaly: 5.1165 deg

Mean motion: 14.5211236 rev/day

Mean motion (dot): 0.00005809 rev/day2

B* drag term: 0.0014344 1/REarth

Two-line elements (TLE)

Creation date: July 6, 2025, 6:05 p.m.

Reference frame: TEME

Reference center: EARTH

Epoch: July 6, 2025, 10:13 a.m. UTC

TLE line 0: 0 NOAA 16 DEB

TLE line 1: 1 41292U 00055GU 25187.42599192 .00005809 00000-0 14344-2 0 9992

TLE line 2: 2 41292 98.9877 33.7026 0036064 354.9660 5.1165 14.52112360497532

Live tracking on map

Real-time ground track for satellite NOAA 16 DEB.

In-orbit conjunctions

A list of the most updated potential collisions computed for object NOAA 16 DEB.

Target Orbit TCA Probability of collision Miss distance Type
COSMOS 2251 DEB LEO 2025-02-21 09:55:50 0.0001620862 157.0 (m) DEBRIS
DELTA 1 DEB SSO 2024-12-19 20:00:56 0.0003203698 103.0 (m) DEBRIS
SL-8 R/B LEO 2024-11-22 20:09:26 0.0001516261 323.0 (m) ROCKET BODY
DMSP 5D-2 F13 DEB SSO 2024-09-25 19:47:01 0.000306396 463.0 (m) DEBRIS

Associated space launch

The NOAA K, L and M POES satellites begin the fifth generation of improved environmental monitoring in support of NOAA missions. The instrument payload has significant improvements and additions/deletions. The instrument changes have effected the spacecraft subsystems and data formats.

NOAA 16 DEB was lifted into orbit during the mission ‘Titan II SLV | NOAA 16’, on board a Titan II SLV space rocket.

The launch took place on Sept. 21, 2000, 10:22 a.m. from Space Launch Complex 4W.

For more information about the launch, click the button.

Launch to space Titan II SLV | NOAA 16
Titan II SLV | NOAA 16

Agency: N/A

Status: Launch Successful

Launch date: Sept. 21, 2000, 10:22 a.m. UTC

Rocket: Titan II SLV

Launch pad: Space Launch Complex 4W

Location: Vandenberg SFB, CA, USA

...

Latest news about this satellite

There are no fresh news available about this satellite. Check back as we update our databases every day.


Newsletter sign-up

Weekly statistics, charts and insights to help you stay on top of the space industry.